DW4273 Weather Reports


Display with metric or nautical units.
time (UTC)temp
F
wind
direction
speed
MPH
gust
MPH
rain 1hr
in
rain 24hr
in
rain mn
in
humidity
%
barometer
mb
20260904133015 69 0.0 0.0 0.05 0.20 0.06 95 1014.3
20260904132036 69 0.0 0.0 0.03 0.18 0.04 95 1014.3
20260904131016 69 0.0 0.0 0.02 0.17 0.03 95 1014.3
20260904130015 68 0.0 0.0 0.02 0.17 0.03 95 1014.3
20260904125016 68 0.0 0.0 0.01 0.16 0.02 95 1014.2
20260904124016 68 0.0 0.0 0.00 0.15 0.01 95 1014.1
20260904123015 68 0.0 0.0 0.00 0.15 0.01 95 1013.9
20260904122015 68 0.0 0.0 0.00 0.15 0.01 95 1013.9
20260904121015 68 0.0 0.0 0.00 0.15 0.01 95 1014.0
20260904120056 68 0.0 0.0 0.00 0.15 0.01 95 1013.8
20260904115016 68 0.0 0.0 0.01 0.15 0.01 95 1013.6
20260904114016 68 0.0 0.0 0.01 0.15 0.01 95 1013.6
20260904113016 68 0.0 0.0 0.01 0.15 0.01 95 1013.3
20260904112055 67 0.0 0.0 0.01 0.15 0.01 95 1013.3
20260904111015 67 0.0 1.0 0.01 0.15 0.01 95 1013.3
20260904110056 67 0.0 0.0 0.01 0.15 0.01 94 1013.0
20260904105015 67 0.0 0.0 0.00 0.14 0.00 94 1012.9
20260904104016 67 0.0 0.0 0.00 0.14 0.00 94 1013.3
20260904103015 67 0.0 0.0 0.00 0.14 0.00 95 1013.0
20260904102015 67 0.0 0.0 0.00 0.14 0.00 95 1013.1
20260904101015 67 0.0 0.0 0.00 0.14 0.00 94 1013.3
20260904100016 67 0.0 0.0 0.00 0.14 0.00 94 1013.3
20260904095056 67 0.0 0.0 0.00 0.14 0.00 94 1013.4
20260904094015 67 0.0 0.0 0.00 0.14 0.00 94 1013.6
20260904093015 67 0.0 0.0 0.00 0.14 0.00 94 1013.5
20260904092016 68 0.0 0.0 0.00 0.14 0.00 94 1013.6
20260904091016 67 0.0 0.0 0.00 0.14 0.00 94 1013.3
20260904090016 68 0.0 0.0 0.00 0.14 0.00 94 1013.3
20260904085016 68 0.0 0.0 0.00 0.14 0.00 94 1013.4
20260904084035 68 0.0 0.0 0.00 0.14 0.00 94 1013.3
20260904083015 68 0.0 0.0 0.00 0.14 0.00 94 1013.2
20260904082015 68 0.0 0.0 0.00 0.14 0.00 94 1013.2
20260904081016 68 0.0 0.0 0.00 0.14 0.00 94 1013.2
20260904080016 68 0.0 0.0 0.00 0.14 0.00 94 1013.4
20260904075015 68 0.0 2.0 0.00 0.14 0.00 94 1013.5
20260904074016 68 0.0 0.0 0.00 0.14 0.00 94 1013.4
20260904073016 69 0.0 1.0 0.00 0.14 0.00 94 1013.6
20260904072015 69 0.0 1.0 0.00 0.14 0.00 94 1013.5
20260904071016 69 68 2.0 3.0 0.00 0.14 0.00 94 1013.7
20260904070015 69 23 1.0 3.0 0.00 0.14 0.00 94 1013.7
20260904065116 69 0.0 0.0 0.00 0.14 0.00 94 1013.7
20260904064056 69 0.0 0.0 0.00 0.14 0.00 94 1013.9
20260904063016 69 0.0 0.0 0.00 0.14 0.00 94 1013.8
20260904062015 69 0.0 0.0 0.00 0.14 0.00 94 1013.6
20260904061611 69 0.0 3.0 0.00 0.14 0.00 94 1013.5
20260904060516 69 0.0 0.0 0.00 0.14 0.00 94 1013.4
20260904055516 69 203 3.0 5.0 0.00 0.14 0.00 94 1013.5
20260904054516 69 0.0 2.0 0.00 0.14 0.00 94 1013.5
20260904053536 69 0.0 0.0 0.00 0.14 0.00 94 1013.5
20260904052535 69 0.0 0.0 0.00 0.14 0.00 94 1013.6
20260904051515 69 0.0 0.0 0.00 0.14 0.00 94 1013.6
20260904050516 69 0.0 0.0 0.00 0.14 0.00 94 1013.6
20260904045536 69 0.0 0.0 0.00 0.14 0.00 94 1013.7
20260904044516 69 0.0 0.0 0.00 0.14 0.00 94 1013.8
20260904043516 69 0.0 0.0 0.00 0.14 0.00 94 1013.6
20260904042536 69 0.0 0.0 0.00 0.14 0.00 94 1013.5
20260904041516 69 0.0 0.0 0.00 0.14 0.00 94 1013.4
20260904040516 69 0.0 4.0 0.00 0.14 0.00 94 1013.3
20260904035517 68 0.0 2.0 0.00 0.14 0.14 94 1013.2
20260904034517 68 0.0 2.0 0.00 0.14 0.14 94 1013.1
20260904033538 68 180 1.0 6.0 0.00 0.14 0.14 94 1013.1
20260904032517 68 0.0 3.0 0.00 0.14 0.14 94 1013.0
20260904031558 68 180 1.0 5.0 0.00 0.14 0.14 94 1013.2
20260904030518 69 180 2.0 6.0 0.00 0.14 0.14 94 1013.1
20260904025517 69 158 2.0 6.0 0.00 0.14 0.14 94 1013.0
20260904024538 69 180 1.0 5.0 0.00 0.14 0.14 94 1013.0
20260904023517 69 180 1.0 5.0 0.00 0.14 0.14 93 1013.0
20260904022537 69 180 1.0 6.0 0.00 0.14 0.14 94 1013.2
20260904021557 69 180 1.0 7.0 0.00 0.14 0.14 93 1013.1
20260904020517 69 0.0 4.0 0.00 0.14 0.14 93 1013.1
20260904015515 69 0.0 2.0 0.00 0.14 0.14 93 1012.9
20260904014515 69 0.0 3.0 0.00 0.14 0.14 93 1012.8
20260904013535 69 0.0 1.0 0.00 0.14 0.14 93 1012.9
20260904012515 69 0.0 3.0 0.00 0.14 0.14 93 1012.9
20260904011515 69 158 1.0 4.0 0.00 0.14 0.14 93 1012.7
20260904010515 69 158 2.0 6.0 0.00 0.14 0.14 93 1012.8
20260904005515 69 158 1.0 4.0 0.00 0.14 0.14 92 1012.8
20260904004515 69 0.0 0.0 0.00 0.14 0.14 92 1013.0
20260904003515 69 0.0 0.0 0.00 0.14 0.14 92 1012.8
20260904002515 69 0.0 3.0 0.00 0.14 0.14 92 1013.0
20260904001535 70 0.0 0.0 0.00 0.14 0.14 92 1013.2
20260904000607 70 0.0 0.0 0.00 0.14 0.14 92 1013.1
20260903235536 70 68 1.0 4.0 0.00 0.14 0.14 92 1013.5
20260903234535 70 45 1.0 4.0 0.02 0.14 0.14 92 1013.7
20260903233535 70 23 3.0 6.0 0.02 0.14 0.14 92 1013.8
20260903232515 70 23 5.0 9.0 0.02 0.14 0.14 91 1014.0
20260903231515 70 23 5.0 10.0 0.02 0.14 0.14 90 1013.8
20260903230515 70 338 4.0 9.0 0.02 0.14 0.14 89 1014.2
20260903225535 71 338 6.0 15.0 0.02 0.14 0.14 88 1014.4
20260903224516 73 0 10.0 20.0 0.00 0.12 0.12 82 1014.2
20260903223515 78 338 12.0 24.0 0.00 0.12 0.12 73 1015.0
20260903222515 85 315 1.0 3.0 0.00 0.12 0.12 69 1012.6
20260903221515 85 315 1.0 2.0 0.00 0.12 0.12 69 1012.0
20260903220515 86 0.0 2.0 0.00 0.12 0.12 68 1011.6
20260903215515 87 248 2.0 3.0 0.00 0.12 0.12 67 1011.3
20260903214515 88 270 1.0 2.0 0.00 0.12 0.12 65 1011.5
20260903213515 88 270 2.0 5.0 0.00 0.12 0.12 63 1011.9
20260903212516 89 248 5.0 8.0 0.00 0.12 0.12 62 1011.6
20260903211535 90 248 6.0 10.0 0.00 0.12 0.12 61 1011.4
20260903210535 90 248 9.0 14.0 0.00 0.12 0.12 59 1011.1
20260903205516 91 248 9.0 13.0 0.00 0.12 0.12 58 1010.8
20260903204515 92 248 10.0 14.0 0.00 0.12 0.12 57 1010.8
20260903203535 92 225 9.0 14.0 0.00 0.12 0.12 55 1010.5
20260903202515 93 225 13.0 19.0 0.00 0.12 0.12 53 1010.7
20260903201515 93 248 9.0 13.0 0.00 0.12 0.12 54 1010.6
20260903200515 93 248 10.0 15.0 0.00 0.12 0.12 53 1010.7
20260903195535 93 248 9.0 16.0 0.00 0.12 0.12 52 1010.9
20260903194556 93 225 10.0 14.0 0.00 0.12 0.12 54 1011.1
20260903193515 91 248 8.0 13.0 0.00 0.12 0.12 56 1011.3
20260903192516 91 248 7.0 13.0 0.00 0.12 0.12 56 1011.5
20260903191515 92 248 9.0 15.0 0.00 0.12 0.12 53 1011.8
20260903190515 94 248 10.0 18.0 0.00 0.12 0.12 52 1012.2
20260903185515 93 248 6.0 11.0 0.00 0.12 0.12 53 1012.1
20260903184535 93 248 5.0 10.0 0.00 0.12 0.12 54 1012.2
20260903183516 93 270 6.0 13.0 0.00 0.12 0.12 53 1012.3
20260903182556 93 248 8.0 12.0 0.00 0.12 0.12 54 1012.4
20260903181516 93 248 7.0 12.0 0.00 0.12 0.12 54 1012.5
20260903180536 93 248 9.0 13.0 0.00 0.12 0.12 54 1012.6
20260903175515 93 248 4.0 11.0 0.00 0.12 0.12 57 1012.7
20260903174516 93 248 6.0 16.0 0.00 0.12 0.12 56 1012.9
20260903173515 92 225 10.0 14.0 0.00 0.12 0.12 57 1013.1
20260903173100 92 248 8.0 11.0 0.00 0.12 0.12 57 1013.1
20260903172016 92 248 6.0 10.0 0.00 0.12 0.12 59 1013.3
20260903171016 92 225 9.0 14.0 0.00 0.12 0.12 59 1013.4
20260903170016 91 225 7.0 11.0 0.00 0.12 0.12 60 1013.5
20260903165036 91 248 7.0 12.0 0.00 0.12 0.12 60 1013.4
20260903164016 90 225 8.0 11.0 0.00 0.12 0.12 62 1013.6
20260903163036 90 248 7.0 11.0 0.00 0.12 0.12 61 1013.7
20260903162015 89 158 4.0 10.0 0.00 0.12 0.12 63 1013.6
20260903161016 89 248 4.0 7.0 0.00 0.12 0.12 64 1013.6
20260903160016 88 225 6.0 10.0 0.00 0.12 0.12 64 1013.7
20260903155016 88 248 6.0 10.0 0.00 0.12 0.12 64 1013.8
20260903154016 88 225 3.0 9.0 0.00 0.12 0.12 66 1013.8
20260903153015 87 248 5.0 8.0 0.00 0.12 0.12 68 1013.7
20260903152056 86 225 7.0 10.0 0.12 0.12 0.12 66 1013.8
20260903151015 86 225 6.0 10.0 0.12 0.12 0.12 69 1013.7
20260903150016 85 248 5.0 10.0 0.12 0.12 0.12 72 1013.8
20260903145016 84 225 5.0 9.0 0.12 0.12 0.12 74 1013.9
20260903144016 84 203 5.0 8.0 0.12 0.12 0.12 74 1013.9
20260903143016 84 180 6.0 9.0 0.12 0.12 0.12 73 1013.9
20260903142036 85 203 5.0 8.0 0.00 0.00 0.00 72 1014.1
20260903141016 85 203 5.0 8.0 0.00 0.00 0.00 72 1014.0
20260903140016 84 248 5.0 8.0 0.00 0.00 0.00 71 1013.8
20260903135016 83 248 3.0 8.0 0.00 0.00 0.00 72 1013.8
20260903134016 83 225 3.0 6.0 0.00 0.00 0.00 74 1013.8